THORAD DELTA 1 DEB

基本信息
目录编号:
18539
目录名称:
THORAD DELTA 1 DEB
国际标识:
1974-089EZ
轨道中心:
EARTH
物体状态:
在轨
发射日期:
1974-11-15 UTC
轨道信息
数据来源: 国际轨道数据
星历时间: 2026-09-13T13:40:19+0800
半长轴: 7824.757km
偏心率: 0.0028124
轨道倾角: 101.562°
近地点辐角: 302.209°
升交点赤经: 168.893°
平近点角: 212.315°
近地点: 1424.613km
远地点: 1468.627km
周期: 114.806分钟
每日圈数: 12.542859
详细信息
发射场:
AFWTR
轨道高度:
LEO
数据来源:
AOE Integration Group
参考系:
TEME
时间系统:
UTC
历元类型:
SGP4
2D轨道图
3D轨道图
轨道高度分析图
轨道倾角分析图
轨道综合分析图
查看轨道综合分析图